Regional Weather Roundup
Issued by NWS

Home | Current Version | Previous Version | Text Only | Print | Product List | Glossary Off
Versions: 1 2 3 4 5 6 7 8 9 10 11 12 13 14 15 16 17 18 19 20 21 22 23 24 25 26 27 28 29 30 31 32 33 34 35 36 37 38 39 40 41 42 43 44 45 46 47 48 49 50

000
ASUS45 KBOI 031310
RWRID

IDAHO REGIONAL WEATHER ROUNDUP
NATIONAL WEATHER SERVICE BOISE ID
700 AM MDT THU SEP 03 2015

NOTE: "FAIR" INDICATES FEW OR NO CLOUDS BELOW 12000 FEET
WITH NO SIGNIFICANT WEATHER AND/OR OBSTRUCTIONS TO VISIBILITY

IDZ012-014-031400-
SOUTHWEST IDAHO


CITY           SKY/WX    TMP DP  RH WIND       PRES   REMARKS
BOISE          MOCLDY    56  43  61 W9        29.88R
CALDWELL       MOCLDY    55  36  47 W12       29.91R
MOUNTAIN HOME  CLOUDY    58  42  54 NW13      29.87R
$$

IDZ016-017-031400-
SOUTHCENTRAL IDAHO


CITY           SKY/WX    TMP DP  RH WIND       PRES   REMARKS
BURLEY         MOCLDY    59  38  45 W14       29.89R
JEROME         PTCLDY    53  40  61 S8        29.91R
TWIN FALLS     PTCLDY    57  35  43 S13       29.92R
$$

IDZ019>023-031400-
SOUTHEAST IDAHO


CITY           SKY/WX    TMP DP  RH WIND       PRES   REMARKS
IDAHO FALLS    MOCLDY    61  39  44 S17       29.89R
POCATELLO      CLEAR     61  38  42 SW13      29.90R
REXBURG        MOCLDY    63  38  39 S13G21    29.88R
$$

IDZ006-010-011-018-031-032-031400-
CENTRAL IDAHO MOUNTAINS


CITY           SKY/WX    TMP DP  RH WIND       PRES   REMARKS
MCCALL         CLOUDY    48  43  82 NW5       29.93S
HAILEY         MOCLDY    50  39  66 CALM      29.91R
STANLEY          N/A     46  31  55 CALM      29.95R
SALMON         CLOUDY    54  43  66 CALM      29.83F
CHALLIS        CLOUDY    54  33  45 S5        29.83S
$$

IDZ002-004-006-007-026-031400-
NORTHERN IDAHO


CITY           SKY/WX    TMP DP  RH WIND       PRES   REMARKS
LEWISTON       CLOUDY    58  47  66 CALM      29.92R
LOWELL           N/A     54  52  93 CALM      29.95S
COEUR D`ALENE  PTCLDY    52  39  62 S9        29.92R
MULLAN PASS    CLOUDY    41  36  82 VRB3      29.96R
$$


USA.gov is the U.S. government's official web portal to all federal, state and local government web resources and services.